Date String (YYYY-MM-DD hh:mm:ss) UTC,Instrument flags,Ambient pressure (hPa),Sample flow (lpm),Bypass flow (lpm),Sample temperature (°C),Ambient temperature (°C),ASC tube jacket temperature (°C),LED temperature (°C),Box temperature (°C),Sample RH (%),Span deviation,Mass concentration (μg/m³),Mass concentration (μg/m³),Mass concentration (μg/m³)
DateTimeUTC,F1_M11,P_M11,Q1_M11,Q2_M11,T1_M11,T2_M11,T3_M11,T4_M11,T5_M11,U1_M11,ZSPAN_M11,X2_M11,X0_M11,X1_M11
2022-11-06 11:00:00,,0818.5,5.00,0.00,23.0,21.3,00.0,31.8,24.9,16.4,0000.0,0001.52,0008.60,0000.98
2022-11-06 11:01:00,,0818.4,5.00,0.00,23.0,21.3,00.0,31.8,24.9,16.4,0000.0,0001.54,0008.33,0000.98
2022-11-06 11:02:00,,0818.4,5.00,0.00,23.0,21.3,00.0,31.8,24.9,16.5,0000.0,0001.54,0008.74,0000.99
2022-11-06 11:03:00,,0818.5,5.01,0.00,23.0,21.3,00.0,31.8,24.9,16.5,0000.0,0001.51,0008.37,0001.00
2022-11-06 11:04:00,,0818.7,5.00,0.00,23.0,21.3,00.0,31.8,24.8,16.5,0000.0,0001.52,0007.83,0001.00
2022-11-06 11:05:00,,0818.7,5.00,0.00,22.9,21.3,00.0,31.8,24.8,16.5,0000.0,0001.56,0008.04,0001.00
2022-11-06 11:06:00,,0818.7,5.00,0.00,22.9,21.2,00.0,31.8,24.8,16.6,0000.0,0001.59,0008.25,0000.99
2022-11-06 11:07:00,,0818.8,5.00,0.00,22.9,21.2,00.0,31.8,24.8,16.6,0000.0,0001.63,0008.36,0001.00
2022-11-06 11:08:00,,0818.7,5.00,0.00,22.9,21.2,00.0,31.8,24.8,16.5,0000.0,0001.59,0008.44,0001.01
2022-11-06 11:09:00,,0818.7,5.00,0.00,22.9,21.2,00.0,31.7,24.8,16.5,0000.0,0001.62,0007.60,0001.01
2022-11-06 11:10:00,,0818.7,4.98,0.00,22.9,21.2,00.0,31.7,24.8,16.5,0000.0,0001.63,0006.87,0001.02
2022-11-06 11:11:00,,0818.8,5.00,0.00,22.9,21.3,00.0,31.7,24.8,16.5,0000.0,0001.67,0006.63,0001.03
2022-11-06 11:12:00,,0818.9,5.01,0.00,22.9,21.3,00.0,31.7,24.8,16.5,0000.0,0001.70,0006.65,0001.03
2022-11-06 11:13:00,,0818.8,5.00,0.00,22.9,21.3,00.0,31.7,24.8,16.5,0000.0,0001.76,0005.94,0001.04
2022-11-06 11:14:00,,0818.9,4.99,0.00,22.9,21.3,00.0,31.7,24.8,16.3,0000.0,0001.83,0006.93,0001.05
2022-11-06 11:15:00,,0819.0,4.99,0.00,22.9,21.3,00.0,31.7,24.8,16.4,0000.0,0001.85,0007.11,0001.06
2022-11-06 11:16:00,,0818.9,5.01,0.00,22.9,21.4,00.0,31.7,24.8,16.4,0000.0,0001.87,0007.13,0001.06
2022-11-06 11:17:00,,0818.9,5.01,0.00,22.9,21.4,00.0,31.7,24.8,16.4,0000.0,0001.86,0007.82,0001.06
2022-11-06 11:18:00,,0818.9,4.99,0.00,22.9,21.5,00.0,31.7,24.8,16.4,0000.0,0001.80,0008.20,0001.05
2022-11-06 11:19:00,,0818.9,5.00,0.00,22.9,21.5,00.0,31.7,24.8,16.4,0000.0,0001.83,0008.10,0001.04
2022-11-06 11:20:00,,0819.0,5.00,0.00,22.9,21.6,00.0,31.7,24.8,16.4,0000.0,0001.86,0008.06,0001.04
2022-11-06 11:21:00,,0819.0,5.00,0.00,22.9,21.6,00.0,31.7,24.8,16.4,0000.0,0001.87,0008.05,0001.03
2022-11-06 11:22:00,,0818.9,5.01,0.00,22.9,21.7,00.0,31.7,24.8,16.3,0000.0,0001.84,0007.75,0001.03
2022-11-06 11:23:00,,0818.9,5.00,0.00,22.9,21.7,00.0,31.7,24.9,16.3,0000.0,0001.81,0007.83,0001.02
2022-11-06 11:24:00,,0818.9,5.00,0.00,23.0,21.7,00.0,31.7,24.9,16.3,0000.0,0001.78,0008.26,0001.01
2022-11-06 11:25:00,,0818.9,5.00,0.00,23.0,21.7,00.0,31.7,24.9,16.3,0000.0,0001.70,0008.59,0001.01
2022-11-06 11:26:00,,0818.9,5.00,0.00,23.0,21.7,00.0,31.7,24.9,16.3,0000.0,0001.69,0009.00,0001.01
2022-11-06 11:27:00,,0818.9,5.00,0.00,23.0,21.8,00.0,31.7,24.9,16.3,0000.0,0001.71,0009.21,0001.02
2022-11-06 11:28:00,,0819.0,5.00,0.00,23.0,21.8,00.0,31.7,24.9,16.3,0000.0,0001.70,0008.63,0001.02
2022-11-06 11:29:00,,0819.0,5.01,0.00,23.0,21.8,00.0,31.7,24.9,16.3,0000.0,0001.76,0008.47,0001.01
2022-11-06 11:30:00,,0818.9,5.00,0.00,23.0,21.8,00.0,31.8,24.9,16.3,0000.0,0001.73,0008.44,0001.01
2022-11-06 11:31:00,,0819.0,4.98,0.00,23.0,21.8,00.0,31.8,25.0,16.4,0000.0,0001.67,0008.35,0001.00
2022-11-06 11:32:00,,0819.0,5.01,0.00,23.1,21.8,00.0,31.8,25.0,16.4,0000.0,0001.69,0008.63,0001.00
2022-11-06 11:33:00,,0819.1,5.00,0.00,23.1,21.8,00.0,31.8,25.0,16.2,0000.0,0001.68,0009.18,0000.99
2022-11-06 11:34:00,,0819.2,5.01,0.00,23.1,21.8,00.0,31.8,25.0,16.1,0000.0,0001.67,0008.89,0000.99
2022-11-06 11:35:00,,0819.2,4.98,0.00,23.1,21.8,00.0,31.8,25.0,16.1,0000.0,0001.68,0008.36,0000.99
2022-11-06 11:36:00,,0819.2,5.00,0.00,23.1,21.8,00.0,31.8,25.0,16.1,0000.0,0001.68,0007.37,0000.97
2022-11-06 11:37:00,,0819.1,5.00,0.00,23.1,21.8,00.0,31.8,25.0,16.2,0000.0,0001.69,0006.81,0000.97
2022-11-06 11:38:00,,0819.0,5.01,0.00,23.1,21.8,00.0,31.8,25.0,16.3,0000.0,0001.62,0006.11,0000.94
2022-11-06 11:39:00,,0819.1,5.00,0.00,23.1,21.8,00.0,31.8,25.0,16.4,0000.0,0001.62,0005.99,0000.93
2022-11-06 11:40:00,,0819.0,4.98,0.00,23.1,21.8,00.0,31.8,25.0,16.4,0000.0,0001.62,0005.71,0000.93
2022-11-06 11:41:00,,0819.0,5.01,0.00,23.1,21.8,00.0,31.8,25.0,16.3,0000.0,0001.63,0005.37,0000.93
2022-11-06 11:42:00,,0819.0,5.01,0.00,23.1,21.8,00.0,31.9,25.0,16.3,0000.0,0001.67,0005.55,0000.94
2022-11-06 11:43:00,,0819.1,5.00,0.00,23.1,21.8,00.0,31.9,25.0,16.3,0000.0,0001.62,0006.31,0000.94
2022-11-06 11:44:00,,0819.1,4.98,0.00,23.1,21.8,00.0,31.8,25.0,16.3,0000.0,0001.60,0004.88,0000.93
2022-11-06 11:45:00,,0819.1,5.00,0.00,23.1,21.8,00.0,31.8,25.0,16.3,0000.0,0001.60,0005.49,0000.93
2022-11-06 11:46:00,,0819.2,5.01,0.00,23.1,21.8,00.0,31.9,25.0,16.3,0000.0,0001.62,0005.71,0000.93
2022-11-06 11:47:00,,0819.2,5.00,0.00,23.1,21.8,00.0,31.9,25.0,16.2,0000.0,0001.66,0005.63,0000.93
2022-11-06 11:48:00,,0819.2,5.01,0.00,23.1,21.8,00.0,31.9,25.0,16.2,0000.0,0001.71,0005.62,0000.94
2022-11-06 11:49:00,,0819.2,5.00,0.00,23.2,21.8,00.0,31.9,25.0,16.1,0000.0,0001.71,0005.56,0000.95
2022-11-06 11:50:00,,0819.2,5.00,0.00,23.1,21.8,00.0,31.9,25.0,16.1,0000.0,0001.69,0005.44,0000.96
2022-11-06 11:51:00,,0819.1,5.00,0.00,23.2,21.8,00.0,31.9,25.0,16.0,0000.0,0001.66,0005.12,0000.95
2022-11-06 11:52:00,,0819.2,4.99,0.00,23.2,21.8,00.0,31.9,25.1,16.0,0000.0,0001.61,0004.98,0000.93
2022-11-06 11:53:00,,0819.2,5.01,0.00,23.2,21.9,00.0,31.9,25.1,16.0,0000.0,0001.55,0004.78,0000.91
2022-11-06 11:54:00,,0819.2,5.02,0.00,23.2,21.9,00.0,31.9,25.1,16.0,0000.0,0001.53,0003.83,0000.89
2022-11-06 11:55:00,,0819.3,4.98,0.00,23.2,21.9,00.0,31.9,25.1,16.0,0000.0,0001.52,0003.88,0000.87
2022-11-06 11:56:00,,0819.2,5.01,0.00,23.2,21.9,00.0,31.9,25.1,15.8,0000.0,0001.47,0003.29,0000.86
2022-11-06 11:57:00,,0819.3,5.01,0.00,23.2,21.9,00.0,31.9,25.1,15.7,0000.0,0001.44,0003.35,0000.85
2022-11-06 11:58:00,,0819.3,4.99,0.00,23.2,21.9,00.0,31.9,25.1,15.7,0000.0,0001.41,0003.63,0000.83
2022-11-06 11:59:00,,0819.3,5.00,0.00,23.2,21.9,00.0,31.9,25.1,15.7,0000.0,0001.35,0003.77,0000.82
